Location: 433rd Scouts Home(Lloyd Manor Park, Etobicoke )
(43.6722°N, 79.5542°W)
Time: 05:19:52
(UTC-04:00)

Envisat - Visible Passes

Search period start: 17 September 2021 00:00
Search period end: 27 September 2021 00:00
Orbit: 764 x 766 km, 98.2° (Epoch: 16 September)

Date Brightness Start Highest point End Pass type
(mag) Time Alt. Az. Time Alt. Az. Time Alt. Az.
17 Sep 6.2 05:01:33 10° ENE 05:02:50 11° E 05:04:06 10° ESE visible
18 Sep 4.4 06:00:48 10° NNE 06:05:37 41° E 06:10:24 10° SSE visible
19 Sep 5.7 05:24:52 10° NE 05:28:30 19° E 05:32:06 10° SE visible
20 Sep 3.4 06:25:56 10° NNE 06:31:02 72° ESE 06:36:06 10° S visible
21 Sep 4.9 05:49:28 10° NNE 05:54:03 33° E 05:58:36 10° SSE visible
22 Sep 5.9 05:13:54 10° NE 05:16:51 15° E 05:19:47 10° SE visible
23 Sep 3.8 06:14:29 10° NNE 06:19:30 57° E 06:24:29 10° S visible
24 Sep 5.3 05:38:12 10° NE 05:42:27 26° E 05:46:41 10° SSE visible
25 Sep 6.1 05:03:20 10° ENE 05:05:12 12° E 05:07:03 10° ESE visible
25 Sep 3.0 06:39:45 10° NNE 06:44:52 84° WNW 06:49:56 10° SSW visible
26 Sep 4.2 06:03:04 10° NNE 06:07:58 45° E 06:12:47 10° S visible
